QPF
0.00 0.00 0.00 0.00 0.00 0.01 0.01 0.00 0.00 0.00 0.01 0.01 0.02 0.03 0.03 0.04 0.04 0.03 0.03 0.04 0.05 0.05 0.05 0.04 0.04 0.03 0.03 0.03 0.04 0.05 0.07 0.06 0.05 0.04 0.05 0.05 0.04 0.05 0.06 0.07 0.07 0.06 0.06
0.00 0.00 0.00 0.00 0.00 0.01 0.01 0.01 0.01 0.01 0.00 0.00 0.00 0.01 0.02 0.02 0.03 0.03 0.03 0.05 0.06 0.07 0.05 0.05 0.05 0.04 0.04 0.03 0.03 0.05 0.06 0.07 0.09 0.05 0.04 0.05 0.05 0.05 0.05 0.05 0.07 0.07 0.07
0.00 0.00 0.00 0.00 0.00 0.01 0.02 0.02 0.01 0.01 0.00 0.00 0.00 0.00 0.01 0.01 0.01 0.02 0.04 0.05 0.05 0.05 0.04 0.05 0.06 0.05 0.05 0.04 0.04 0.05 0.06 0.08 0.12 0.07 0.04 0.04 0.04 0.04 0.05 0.04 0.05 0.07 0.07
0.00 0.00 0.00 0.01 0.01 0.02 0.02 0.03 0.03 0.02 0.01 0.01 0.00 0.00 0.00 0.01 0.01 0.02 0.04 0.05 0.04 0.04 0.04 0.05 0.06 0.05 0.04 0.04 0.06 0.07 0.07 0.11 0.12 0.07 0.05 0.05 0.04 0.04 0.05 0.05 0.06 0.07 0.07
0.00 0.01 0.01 0.01 0.01 0.02 0.03 0.04 0.05 0.03 0.02 0.01 0.01 0.01 0.01 0.01 0.02 0.03 0.04 0.05 0.04 0.03 0.04 0.05 0.06 0.05 0.04 0.05 0.06 0.08 0.09 0.10 0.08 0.06 0.05 0.07 0.06 0.05 0.04 0.04 0.05 0.06 0.06
0.00 0.00 0.01 0.01 0.01 0.02 0.03 0.04 0.07 0.04 0.02 0.02 0.02 0.02 0.01 0.02 0.03 0.03 0.03 0.03 0.03 0.03 0.03 0.04 0.06 0.06 0.05 0.05 0.06 0.08 0.08 0.09 0.09 0.08 0.06 0.07 0.07 0.07 0.07 0.06 0.05 0.05 0.06
0.00 0.00 0.00 0.01 0.02 0.03 0.03 0.03 0.04 0.02 0.03 0.03 0.03 0.02 0.02 0.03 0.03 0.03 0.03 0.02 0.02 0.01 0.02 0.02 0.04 0.05 0.05 0.06 0.07 0.07 0.06 0.08 0.09 0.07 0.04 0.04 0.05 0.06 0.07 0.07 0.05 0.04 0.05
0.00 0.00 0.01 0.03 0.03 0.03 0.03 0.03 0.04 0.04 0.04 0.03 0.03 0.02 0.02 0.03 0.04 0.04 0.04 0.05 0.03 0.02 0.02 0.02 0.02 0.05 0.06 0.07 0.07 0.06 0.06 0.07 0.07 0.06 0.06 0.06 0.07 0.07 0.07 0.06 0.05 0.04 0.04
0.01 0.02 0.03 0.04 0.04 0.03 0.02 0.03 0.04 0.05 0.06 0.05 0.03 0.02 0.02 0.02 0.04 0.06 0.05 0.04 0.03 0.02 0.02 0.02 0.02 0.04 0.06 0.07 0.08 0.07 0.07 0.08 0.08 0.07 0.06 0.06 0.06 0.05 0.04 0.03 0.04 0.04 0.03
0.02 0.02 0.03 0.03 0.02 0.02 0.02 0.02 0.01 0.01 0.02 0.02 0.02 0.01 0.01 0.01 0.02 0.02 0.02 0.02 0.02 0.02 0.02 0.02 0.02 0.04 0.04 0.06 0.06 0.07 0.08 0.09 0.08 0.07 0.06 0.06 0.05 0.03 0.02 0.03 0.05 0.05 0.04
0.02 0.02 0.02 0.02 0.02 0.02 0.02 0.01 0.00 0.00 0.01 0.01 0.01 0.01 0.01 0.01 0.01 0.02 0.01 0.01 0.01 0.01 0.01 0.02 0.02 0.03 0.04 0.06 0.06 0.07 0.08 0.08 0.07 0.06 0.06 0.05 0.04 0.03 0.04 0.04 0.04 0.05 0.05
0.02 0.02 0.02 0.02 0.03 0.03 0.01 0.01 0.00 0.00 0.00 0.01 0.01 0.01 0.02 0.03 0.03 0.04 0.03 0.02 0.01 0.01 0.01 0.01 0.02 0.03 0.05 0.05 0.04 0.06 0.07 0.08 0.10 0.07 0.05 0.07 0.08 0.06 0.06 0.05 0.07 0.07 0.06
0.01 0.02 0.02 0.02 0.02 0.02 0.02 0.01 0.01 0.01 0.01 0.03 0.04 0.06 0.07 0.06 0.07 0.07 0.04 0.02 0.01 0.01 0.02 0.03 0.04 0.04 0.06 0.04 0.03 0.05 0.07 0.08 0.13 0.11 0.07 0.06 0.07 0.06 0.07 0.08 0.07 0.07 0.05
0.03 0.04 0.05 0.04 0.04 0.03 0.03 0.03 0.01 0.01 0.03 0.06 0.10 0.13 0.13 0.10 0.06 0.04 0.02 0.01 0.01 0.01 0.02 0.04 0.05 0.05 0.07 0.06 0.06 0.07 0.07 0.08 0.09 0.08 0.07 0.07 0.06 0.06 0.07 0.08 0.06 0.05 0.04
0.05 0.04 0.05 0.05 0.06 0.05 0.03 0.02 0.03 0.06 0.11 0.15 0.16 0.15 0.13 0.09 0.06 0.05 0.02 0.02 0.01 0.02 0.03 0.05 0.05 0.07 0.07 0.08 0.08 0.07 0.06 0.05 0.04 0.04 0.04 0.05 0.06 0.06 0.06 0.05 0.05 0.04 0.03
0.03 0.03 0.04 0.05 0.07 0.05 0.03 0.03 0.05 0.14 0.19 0.18 0.15 0.12 0.10 0.08 0.08 0.06 0.03 0.02 0.02 0.03 0.04 0.05 0.04 0.04 0.05 0.06 0.06 0.05 0.05 0.04 0.04 0.04 0.04 0.04 0.05 0.06 0.05 0.05 0.04 0.03 0.02
0.08 0.04 0.03 0.03 0.04 0.03 0.02 0.03 0.06 0.10 0.10 0.10 0.10 0.07 0.06 0.05 0.05 0.03 0.03 0.02 0.02 0.03 0.02 0.03 0.05 0.05 0.04 0.04 0.04 0.04 0.04 0.04 0.05 0.05 0.05 0.04 0.04 0.04 0.03 0.03 0.03 0.02 0.02
0.07 0.07 0.04 0.03 0.03 0.02 0.02 0.01 0.02 0.04 0.04 0.04 0.03 0.03 0.03 0.03 0.03 0.02 0.02 0.02 0.02 0.02 0.02 0.03 0.03 0.03 0.02 0.02 0.02 0.03 0.04 0.06 0.06 0.06 0.07 0.05 0.04 0.04 0.02 0.02 0.01 0.01 0.02
0.02 0.03 0.03 0.04 0.03 0.02 0.02 0.02 0.03 0.03 0.04 0.04 0.03 0.03 0.03 0.03 0.03 0.02 0.01 0.02 0.02 0.02 0.02 0.01 0.02 0.03 0.02 0.03 0.02 0.03 0.04 0.06 0.08 0.08 0.06 0.04 0.03 0.04 0.03 0.01 0.01 0.01 0.02
0.02 0.02 0.02 0.04 0.04 0.03 0.03 0.03 0.03 0.03 0.05 0.06 0.06 0.05 0.05 0.05 0.04 0.03 0.03 0.03 0.02 0.02 0.02 0.02 0.02 0.03 0.02 0.03 0.03 0.03 0.03 0.03 0.05 0.05 0.03 0.02 0.02 0.02 0.02 0.01 0.01 0.01 0.01
0.02 0.02 0.03 0.03 0.04 0.04 0.03 0.02 0.02 0.03 0.03 0.05 0.05 0.05 0.05 0.06 0.06 0.05 0.04 0.03 0.03 0.03 0.03 0.03 0.03 0.02 0.02 0.02 0.03 0.03 0.03 0.03 0.02 0.01 0.01 0.01 0.01 0.01 0.01 0.01 0.00 0.01 0.01
0.03 0.03 0.04 0.03 0.03 0.03 0.03 0.03 0.02 0.02 0.02 0.02 0.03 0.04 0.06 0.07 0.07 0.06 0.05 0.05 0.04 0.04 0.03 0.04 0.03 0.03 0.02 0.01 0.02 0.03 0.05 0.05 0.03 0.02 0.02 0.01 0.01 0.01 0.00 0.00 0.00 0.00 0.00
0.05 0.05 0.04 0.03 0.03 0.03 0.03 0.03 0.03 0.03 0.03 0.04 0.04 0.06 0.08 0.10 0.10 0.09 0.07 0.06 0.06 0.06 0.06 0.05 0.04 0.03 0.02 0.02 0.03 0.03 0.04 0.04 0.02 0.01 0.01 0.01 0.01 0.00 0.00 0.00 0.00 0.00 0.00
0.05 0.04 0.04 0.04 0.04 0.04 0.03 0.03 0.03 0.04 0.04 0.05 0.06 0.06 0.07 0.09 0.09 0.08 0.07 0.06 0.06 0.07 0.07 0.06 0.05 0.04 0.03 0.02 0.02 0.01 0.01 0.02 0.01 0.01 0.01 0.01 0.01 0.01 0.00 0.00 0.00 0.00 0.00
0.05 0.04 0.05 0.05 0.04 0.03 0.03 0.03 0.04 0.04 0.03 0.03 0.06 0.07 0.06 0.05 0.06 0.07 0.07 0.07 0.07 0.07 0.07 0.06 0.04 0.03 0.03 0.02 0.02 0.01 0.01 0.01 0.01 0.01 0.01 0.01 0.01 0.01 0.00 0.01 0.00 0.00 0.00
0.06 0.04 0.04 0.03 0.02 0.02 0.02 0.03 0.04 0.03 0.03 0.02 0.03 0.06 0.11 0.09 0.06 0.05 0.06 0.08 0.07 0.05 0.04 0.03 0.03 0.02 0.02 0.02 0.02 0.01 0.01 0.01 0.02 0.01 0.01 0.01 0.01 0.01 0.01 0.01 0.00 0.00 0.00
MSLP
1011.62 1011.87 1012.18 1012.49 1012.79 1013.04 1013.27 1013.47 1013.68 1013.92 1014.20 1014.51 1014.86 1015.22 1015.56 1015.86 1016.09 1016.26 1016.37 1016.43 1016.46 1016.50 1016.56 1016.68 1016.86 1017.09 1017.37 1017.68 1017.99 1018.28 1018.54 1018.74 1018.89 1018.98 1019.04 1019.07 1019.08 1019.08 1019.09 1019.09 1019.11 1019.13 1019.17
1011.30 1011.65 1012.05 1012.43 1012.76 1013.02 1013.22 1013.40 1013.58 1013.79 1014.06 1014.38 1014.75 1015.12 1015.47 1015.76 1015.97 1016.10 1016.16 1016.16 1016.15 1016.16 1016.22 1016.35 1016.54 1016.80 1017.10 1017.42 1017.74 1018.03 1018.29 1018.51 1018.68 1018.82 1018.93 1019.02 1019.09 1019.14 1019.17 1019.19 1019.19 1019.18 1019.16
1010.80 1011.24 1011.73 1012.18 1012.56 1012.85 1013.06 1013.22 1013.38 1013.59 1013.86 1014.19 1014.56 1014.95 1015.30 1015.58 1015.77 1015.86 1015.88 1015.85 1015.81 1015.80 1015.85 1015.98 1016.19 1016.46 1016.77 1017.10 1017.42 1017.71 1017.98 1018.21 1018.42 1018.60 1018.77 1018.93 1019.07 1019.18 1019.26 1019.30 1019.30 1019.26 1019.20
1010.15 1010.65 1011.21 1011.73 1012.17 1012.50 1012.72 1012.90 1013.07 1013.27 1013.55 1013.89 1014.28 1014.68 1015.04 1015.32 1015.49 1015.57 1015.56 1015.51 1015.45 1015.43 1015.48 1015.61 1015.82 1016.10 1016.41 1016.74 1017.05 1017.35 1017.62 1017.87 1018.11 1018.34 1018.58 1018.80 1019.01 1019.18 1019.31 1019.38 1019.39 1019.36 1019.28
1009.43 1009.96 1010.56 1011.14 1011.62 1011.99 1012.25 1012.44 1012.63 1012.85 1013.14 1013.50 1013.91 1014.32 1014.69 1014.98 1015.16 1015.23 1015.22 1015.16 1015.09 1015.07 1015.11 1015.24 1015.45 1015.72 1016.03 1016.34 1016.65 1016.95 1017.22 1017.49 1017.76 1018.03 1018.32 1018.60 1018.87 1019.10 1019.28 1019.39 1019.43 1019.41 1019.34
1008.75 1009.27 1009.88 1010.48 1011.00 1011.40 1011.69 1011.91 1012.12 1012.36 1012.67 1013.06 1013.48 1013.92 1014.30 1014.61 1014.80 1014.88 1014.87 1014.81 1014.74 1014.71 1014.75 1014.86 1015.05 1015.31 1015.59 1015.89 1016.19 1016.48 1016.76 1017.04 1017.33 1017.64 1017.96 1018.29 1018.61 1018.89 1019.11 1019.27 1019.36 1019.39 1019.36
1008.24 1008.71 1009.30 1009.90 1010.42 1010.83 1011.14 1011.39 1011.62 1011.89 1012.22 1012.62 1013.07 1013.51 1013.92 1014.24 1014.44 1014.53 1014.52 1014.46 1014.39 1014.35 1014.36 1014.45 1014.61 1014.83 1015.08 1015.36 1015.64 1015.91 1016.19 1016.49 1016.80 1017.13 1017.48 1017.85 1018.20 1018.52 1018.79 1019.00 1019.15 1019.25 1019.30
1008.00 1008.40 1008.93 1009.49 1009.99 1010.39 1010.71 1010.97 1011.22 1011.50 1011.85 1012.27 1012.73 1013.18 1013.59 1013.92 1014.12 1014.22 1014.21 1014.14 1014.05 1013.98 1013.96 1014.00 1014.11 1014.28 1014.49 1014.73 1014.98 1015.24 1015.52 1015.82 1016.14 1016.49 1016.87 1017.25 1017.62 1017.98 1018.30 1018.57 1018.80 1018.99 1019.15
1008.07 1008.39 1008.84 1009.33 1009.78 1010.16 1010.46 1010.72 1010.98 1011.28 1011.64 1012.06 1012.52 1012.97 1013.38 1013.69 1013.89 1013.97 1013.95 1013.86 1013.74 1013.63 1013.55 1013.53 1013.58 1013.69 1013.84 1014.03 1014.25 1014.50 1014.77 1015.07 1015.40 1015.76 1016.14 1016.54 1016.93 1017.32 1017.68 1018.02 1018.34 1018.64 1018.93
1008.43 1008.66 1009.02 1009.43 1009.82 1010.16 1010.44 1010.69 1010.95 1011.25 1011.62 1012.03 1012.48 1012.91 1013.29 1013.59 1013.76 1013.82 1013.77 1013.65 1013.48 1013.32 1013.18 1013.10 1013.07 1013.10 1013.19 1013.33 1013.51 1013.73 1013.99 1014.29 1014.63 1014.99 1015.38 1015.78 1016.19 1016.60 1017.01 1017.41 1017.81 1018.23 1018.65
1008.99 1009.15 1009.42 1009.75 1010.07 1010.35 1010.61 1010.85 1011.11 1011.41 1011.77 1012.17 1012.60 1013.00 1013.35 1013.60 1013.74 1013.77 1013.68 1013.52 1013.32 1013.10 1012.90 1012.75 1012.65 1012.62 1012.65 1012.73 1012.87 1013.07 1013.31 1013.60 1013.94 1014.30 1014.69 1015.09 1015.51 1015.93 1016.37 1016.82 1017.31 1017.82 1018.37
1009.62 1009.72 1009.93 1010.17 1010.42 1010.66 1010.89 1011.12 1011.38 1011.69 1012.04 1012.43 1012.83 1013.20 1013.50 1013.72 1013.82 1013.80 1013.69 1013.50 1013.26 1013.00 1012.76 1012.56 1012.40 1012.31 1012.29 1012.33 1012.43 1012.60 1012.83 1013.11 1013.43 1013.79 1014.17 1014.57 1014.98 1015.41 1015.86 1016.35 1016.89 1017.48 1018.13
1010.19 1010.26 1010.40 1010.58 1010.78 1010.98 1011.19 1011.42 1011.69 1012.00 1012.36 1012.73 1013.10 1013.44 1013.70 1013.88 1013.94 1013.91 1013.77 1013.57 1013.32 1013.05 1012.79 1012.56 1012.38 1012.25 1012.19 1012.19 1012.27 1012.41 1012.62 1012.88 1013.19 1013.53 1013.90 1014.28 1014.67 1015.09 1015.54 1016.04 1016.60 1017.23 1017.94
1010.61 1010.65 1010.75 1010.88 1011.03 1011.21 1011.42 1011.66 1011.95 1012.27 1012.63 1013.00 1013.35 1013.65 1013.89 1014.04 1014.09 1014.04 1013.91 1013.72 1013.49 1013.25 1013.00 1012.78 1012.59 1012.45 1012.37 1012.36 1012.41 1012.53 1012.71 1012.95 1013.24 1013.56 1013.90 1014.25 1014.62 1015.01 1015.44 1015.92 1016.48 1017.11 1017.83
1010.80 1010.83 1010.90 1011.00 1011.13 1011.30 1011.51 1011.78 1012.09 1012.44 1012.81 1013.17 1013.51 1013.80 1014.02 1014.15 1014.20 1014.18 1014.08 1013.94 1013.76 1013.56 1013.36 1013.17 1013.01 1012.88 1012.80 1012.78 1012.82 1012.92 1013.08 1013.30 1013.56 1013.85 1014.16 1014.48 1014.81 1015.16 1015.56 1016.00 1016.52 1017.13 1017.83
1010.76 1010.79 1010.83 1010.92 1011.04 1011.22 1011.45 1011.74 1012.09 1012.47 1012.85 1013.23 1013.57 1013.85 1014.07 1014.21 1014.28 1014.29 1014.25 1014.18 1014.07 1013.95 1013.82 1013.70 1013.58 1013.49 1013.42 1013.40 1013.43 1013.52 1013.66 1013.85 1014.08 1014.34 1014.62 1014.91 1015.20 1015.52 1015.86 1016.26 1016.73 1017.29 1017.93
1010.53 1010.55 1010.59 1010.67 1010.80 1010.99 1011.25 1011.58 1011.96 1012.36 1012.77 1013.16 1013.51 1013.80 1014.03 1014.20 1014.32 1014.39 1014.42 1014.43 1014.42 1014.39 1014.34 1014.29 1014.23 1014.18 1014.14 1014.13 1014.16 1014.23 1014.35 1014.52 1014.73 1014.97 1015.22 1015.48 1015.74 1016.02 1016.32 1016.68 1017.09 1017.58 1018.16
1010.17 1010.20 1010.24 1010.32 1010.46 1010.67 1010.96 1011.32 1011.73 1012.16 1012.59 1013.00 1013.37 1013.68 1013.94 1014.15 1014.32 1014.46 1014.58 1014.68 1014.76 1014.83 1014.87 1014.90 1014.90 1014.88 1014.87 1014.88 1014.90 1014.97 1015.08 1015.24 1015.43 1015.65 1015.89 1016.13 1016.38 1016.63 1016.91 1017.22 1017.59 1018.03 1018.54
1009.77 1009.80 1009.85 1009.93 1010.09 1010.32 1010.63 1011.01 1011.44 1011.90 1012.35 1012.78 1013.17 1013.51 1013.81 1014.07 1014.31 1014.53 1014.73 1014.92 1015.10 1015.25 1015.38 1015.46 1015.52 1015.54 1015.56 1015.57 1015.61 1015.68 1015.79 1015.94 1016.13 1016.35 1016.58 1016.83 1017.07 1017.32 1017.59 1017.88 1018.21 1018.60 1019.06
1009.40 1009.43 1009.48 1009.57 1009.73 1009.97 1010.30 1010.69 1011.14 1011.61 1012.08 1012.53 1012.94 1013.32 1013.67 1013.99 1014.30 1014.59 1014.88 1015.16 1015.42 1015.64 1015.83 1015.97 1016.07 1016.13 1016.16 1016.19 1016.24 1016.31 1016.43 1016.59 1016.79 1017.02 1017.27 1017.53 1017.79 1018.05 1018.32 1018.61 1018.93 1019.29 1019.71
1009.09 1009.13 1009.17 1009.26 1009.42 1009.67 1009.99 1010.39 1010.83 1011.31 1011.79 1012.26 1012.70 1013.13 1013.53 1013.91 1014.29 1014.66 1015.03 1015.38 1015.70 1015.99 1016.22 1016.40 1016.53 1016.62 1016.67 1016.72 1016.79 1016.88 1017.02 1017.20 1017.42 1017.67 1017.95 1018.23 1018.52 1018.80 1019.08 1019.38 1019.70 1020.05 1020.44
1008.87 1008.89 1008.93 1009.01 1009.16 1009.39 1009.71 1010.09 1010.53 1011.00 1011.48 1011.97 1012.44 1012.91 1013.37 1013.82 1014.27 1014.71 1015.14 1015.55 1015.93 1016.26 1016.53 1016.74 1016.90 1017.00 1017.09 1017.16 1017.25 1017.37 1017.53 1017.74 1018.00 1018.28 1018.59 1018.90 1019.21 1019.52 1019.82 1020.13 1020.46 1020.80 1021.18
1008.71 1008.71 1008.73 1008.80 1008.93 1009.14 1009.43 1009.79 1010.20 1010.66 1011.15 1011.65 1012.15 1012.66 1013.17 1013.68 1014.20 1014.70 1015.19 1015.65 1016.07 1016.43 1016.73 1016.97 1017.15 1017.28 1017.39 1017.50 1017.62 1017.78 1017.98 1018.22 1018.51 1018.82 1019.16 1019.50 1019.83 1020.16 1020.48 1020.80 1021.13 1021.48 1021.85
1008.58 1008.56 1008.56 1008.60 1008.71 1008.89 1009.14 1009.47 1009.86 1010.30 1010.78 1011.29 1011.82 1012.37 1012.92 1013.49 1014.05 1014.61 1015.15 1015.64 1016.09 1016.48 1016.81 1017.07 1017.27 1017.43 1017.58 1017.72 1017.89 1018.08 1018.32 1018.61 1018.93 1019.27 1019.62 1019.98 1020.32 1020.66 1020.99 1021.31 1021.65 1021.99 1022.36
1008.45 1008.41 1008.38 1008.39 1008.47 1008.62 1008.84 1009.13 1009.49 1009.91 1010.38 1010.90 1011.44 1012.02 1012.61 1013.21 1013.82 1014.41 1014.98 1015.51 1015.98 1016.39 1016.73 1017.01 1017.24 1017.44 1017.62 1017.81 1018.02 1018.26 1018.54 1018.86 1019.21 1019.57 1019.94 1020.29 1020.64 1020.98 1021.30 1021.62 1021.95 1022.29 1022.64
1008.28 1008.21 1008.16 1008.16 1008.21 1008.33 1008.52 1008.78 1009.12 1009.52 1009.97 1010.48 1011.03 1011.62 1012.24 1012.86 1013.49 1014.11 1014.69 1015.23 1015.71 1016.13 1016.49 1016.79 1017.05 1017.28 1017.51 1017.74 1018.00 1018.29 1018.61 1018.95 1019.32 1019.69 1020.06 1020.41 1020.75 1021.07 1021.38 1021.69 1022.00 1022.33 1022.68
Thickness
5801 5800 5797 5794 5790 5786 5782 5779 5775 5772 5769 5765 5761 5758 5756 5756 5755 5754 5753 5751 5750 5749 5747 5746 5745 5744 5743 5742 5742 5741 5739 5738 5739 5737 5735 5736 5737 5737 5737 5737 5736 5735 5734
5799 5798 5797 5794 5790 5786 5783 5780 5776 5773 5770 5767 5764 5761 5759 5757 5756 5756 5754 5753 5751 5750 5748 5747 5746 5745 5743 5742 5742 5740 5738 5738 5739 5736 5731 5728 5730 5734 5736 5735 5735 5734 5734
5801 5799 5796 5793 5790 5787 5784 5782 5778 5775 5772 5769 5765 5762 5759 5757 5755 5755 5754 5754 5753 5751 5750 5748 5747 5746 5744 5743 5742 5741 5739 5737 5737 5737 5733 5726 5723 5727 5730 5732 5733 5733 5732
5806 5802 5799 5795 5793 5790 5788 5783 5780 5777 5774 5770 5766 5762 5757 5754 5754 5754 5754 5755 5754 5752 5751 5750 5748 5747 5745 5744 5743 5743 5741 5739 5736 5736 5736 5734 5731 5725 5723 5727 5730 5731 5730
5811 5807 5804 5800 5797 5794 5789 5785 5781 5778 5774 5771 5768 5764 5760 5758 5757 5756 5755 5754 5754 5753 5752 5751 5749 5748 5746 5745 5744 5743 5742 5740 5738 5736 5734 5732 5730 5728 5724 5721 5724 5727 5728
5814 5810 5808 5803 5799 5796 5792 5786 5781 5777 5775 5772 5769 5765 5762 5759 5756 5755 5754 5753 5753 5753 5753 5751 5749 5748 5747 5746 5744 5743 5742 5740 5739 5737 5735 5733 5730 5727 5725 5722 5721 5721 5724
5814 5810 5806 5802 5799 5795 5792 5788 5783 5778 5776 5773 5770 5767 5764 5761 5757 5755 5754 5753 5752 5752 5751 5751 5749 5748 5747 5746 5745 5744 5741 5740 5739 5737 5736 5735 5734 5732 5729 5724 5721 5719 5721
5815 5812 5809 5806 5801 5797 5793 5790 5785 5781 5778 5774 5771 5768 5765 5762 5759 5757 5755 5753 5753 5753 5752 5751 5750 5748 5747 5746 5745 5743 5742 5740 5739 5738 5736 5735 5734 5733 5731 5727 5723 5718 5717
5815 5812 5810 5806 5803 5799 5796 5792 5787 5782 5779 5775 5772 5769 5766 5763 5760 5758 5756 5754 5754 5753 5752 5751 5750 5748 5747 5745 5744 5742 5741 5739 5738 5737 5736 5735 5734 5732 5731 5729 5727 5721 5715
5813 5811 5810 5807 5804 5801 5797 5792 5788 5784 5780 5776 5773 5770 5766 5763 5760 5758 5755 5754 5753 5752 5752 5751 5749 5748 5746 5745 5743 5741 5740 5738 5737 5736 5734 5733 5733 5732 5731 5729 5727 5724 5720
5811 5810 5808 5807 5804 5800 5796 5791 5787 5783 5779 5776 5772 5769 5766 5763 5760 5757 5755 5752 5752 5751 5750 5749 5748 5746 5745 5744 5742 5740 5738 5737 5735 5734 5733 5732 5731 5730 5729 5727 5725 5722 5720
5809 5808 5806 5803 5800 5797 5794 5790 5787 5783 5779 5776 5772 5768 5766 5763 5759 5755 5753 5752 5750 5750 5749 5748 5747 5745 5744 5742 5740 5739 5737 5735 5734 5732 5731 5730 5730 5728 5726 5724 5722 5720 5718
5804 5803 5801 5799 5797 5794 5791 5788 5785 5782 5779 5775 5770 5766 5763 5760 5758 5755 5751 5749 5748 5748 5747 5746 5744 5743 5741 5740 5738 5737 5735 5733 5732 5730 5729 5728 5727 5725 5723 5721 5719 5717 5715
5799 5798 5796 5795 5794 5792 5789 5786 5783 5781 5777 5773 5769 5764 5761 5758 5756 5754 5751 5748 5746 5745 5744 5743 5742 5740 5739 5738 5736 5734 5732 5730 5729 5728 5726 5725 5724 5722 5720 5718 5716 5714 5710
5793 5793 5792 5790 5789 5787 5785 5782 5780 5778 5775 5771 5767 5763 5760 5757 5754 5750 5748 5746 5744 5743 5742 5740 5739 5738 5736 5734 5733 5731 5729 5727 5725 5724 5723 5722 5720 5719 5717 5715 5713 5710 5707
5789 5789 5788 5787 5785 5783 5781 5779 5776 5774 5772 5768 5764 5762 5758 5755 5751 5747 5745 5743 5741 5740 5739 5736 5734 5733 5732 5730 5729 5728 5725 5723 5721 5719 5718 5717 5716 5714 5713 5711 5709 5707 5704
5785 5784 5784 5783 5782 5781 5778 5775 5773 5770 5766 5764 5762 5759 5755 5751 5747 5745 5742 5740 5738 5736 5734 5732 5730 5728 5727 5726 5724 5723 5721 5718 5716 5714 5712 5712 5710 5709 5707 5705 5703 5701 5699
5781 5781 5780 5779 5778 5777 5774 5772 5769 5765 5762 5760 5757 5754 5750 5746 5743 5740 5738 5735 5733 5731 5729 5727 5725 5724 5722 5721 5719 5717 5715 5712 5710 5708 5707 5705 5704 5703 5701 5700 5697 5694 5692
5777 5777 5777 5775 5773 5771 5769 5765 5761 5759 5757 5754 5752 5749 5746 5742 5738 5735 5733 5731 5729 5726 5724 5722 5720 5718 5716 5714 5713 5710 5708 5705 5703 5702 5701 5700 5698 5697 5695 5693 5690 5687 5684
5772 5771 5770 5768 5766 5765 5763 5759 5755 5753 5751 5750 5748 5745 5742 5738 5734 5731 5728 5726 5724 5721 5718 5716 5714 5712 5710 5708 5706 5704 5702 5699 5697 5695 5694 5692 5691 5690 5688 5686 5684 5680 5676
5766 5765 5763 5761 5759 5758 5756 5752 5749 5747 5747 5745 5742 5739 5736 5733 5730 5727 5724 5721 5718 5715 5712 5710 5707 5705 5703 5702 5700 5699 5696 5694 5691 5689 5686 5685 5683 5682 5680 5678 5676 5672 5669
5758 5757 5755 5753 5753 5752 5749 5746 5743 5743 5740 5737 5734 5732 5729 5727 5724 5721 5717 5714 5711 5707 5704 5702 5700 5698 5696 5694 5693 5692 5690 5688 5685 5682 5679 5677 5675 5673 5671 5669 5666 5664 5661
5749 5748 5746 5745 5744 5743 5742 5738 5736 5735 5733 5729 5726 5724 5721 5719 5716 5714 5710 5707 5704 5701 5698 5695 5692 5690 5688 5687 5686 5684 5682 5680 5678 5674 5671 5669 5667 5665 5663 5660 5657 5655 5653
5741 5740 5739 5736 5734 5734 5733 5732 5729 5728 5725 5721 5718 5715 5712 5709 5707 5705 5702 5699 5697 5694 5691 5688 5685 5683 5680 5679 5678 5677 5675 5672 5669 5666 5663 5661 5658 5656 5654 5651 5648 5646 5643
5731 5731 5730 5728 5726 5725 5723 5722 5721 5719 5716 5712 5710 5706 5704 5702 5698 5694 5692 5691 5690 5689 5686 5683 5680 5677 5674 5673 5671 5669 5667 5664 5661 5658 5655 5653 5650 5647 5645 5642 5639 5636 5634
5721 5721 5720 5718 5717 5715 5714 5713 5712 5711 5707 5703 5701 5699 5695 5692 5689 5686 5682 5681 5680 5680 5679 5676 5673 5670 5668 5666 5664 5662 5659 5656 5653 5651 5648 5644 5642 5639 5636 5634 5631 5628 5625